Погода в Магнитогорске

Погода в Магнитогорске : погода сейчас, прогноз погоды и архив. Всё, что Вы хотите узнать о погоде в Магнитогорске!

Хотите узнать прогноз погоды в Магнитогорске? Тогда Вам сюда: Погода в Магнитогорске

Поиск расширенной информации на нашем сайте:

Другие новости

Новости СМИ2

Главная страница сайта

Новости сайта

03.07.2017

Напоминаем, что на нашем специализированном сайте Метеоцентр.Азия вы можете получить высокодетализированные автоматические прогнозы погоды по пунктам России, СНГ и мира в авиационном формате (включающие направление и скорость ветра, видимость, явления погоды, количество и форму облачности, нижнюю и верхнюю границу облачности).

Рекомендуем: Строительные компании проектно Строительные.

Погода в Магнитогорске - сегодня

Время (UTC), дата Ветер
(°,м/с) 
Видим.   Явления Облачность Т
(°С)
Тd
(°С)
f(%) Тe
(°С)
Pmin
(гПа)
dP
(гПа)
Po
(мм)
O2
(г/м3)
Тmin Tmax R s Состояние
почвы
09 11.12.17 180 (Ю) 20000 м    10/0 верхняя 
[Cs]
-14.6 -17.1 81 -15  1031.2  0.5  735  314           
12 11.12.17 тихо ()   20000 м    6/0 верхняя 
[Cs]
-17.3 -19.7 82 -17  1033.2  1.4  736  318           
15 11.12.17 310 (СЗ) 10 км    ясно 
-20.8 -23.3 80 -21  1034.8  0.8  737  323    -12.4       
18 11.12.17 020 (С) 10 км    ясно 
-21.6 -24.3 79 -22  1035.9  0.9  738  324           
21 11.12.17 тихо ()   10 км    ясно 
-23.2 -26.1 77 -23  1037.8  1.5  739  327           
00 12.12.17 тихо ()   10 км    ясно 
-24.4 -27.4 76 -24  1038.2  0.1  739  329           
03 12.12.17 тихо ()   10 км  дымка  ясно 
-26 -29.2 74 -26  1039.7  740  331  -26.7      15  равномерный
сухой снег
100% 
06 12.12.17 тихо ()   20000 м    10/0 средняя 
[As trans]
-21.9 -24.8 77 -22  1039.7  0.8  740  326           
09 12.12.17 тихо ()   20000 м    6/0 верхняя 
[Cs]
-18.4 -21.1 79 -18  1039.4  0.4  741  322           
12 12.12.17 тихо ()   20000 м    ясно 
-21.5 -24.3 78 -22  1040.7  0.6  741  326           
15 12.12.17 010 (С) 10 км    ясно 
-23.2 -26.1 77 -24  1042.2  1.1  742  328    -18       
18 12.12.17 тихо ()   10 км    10/0 средняя 
[As trans]
-21.6 -24.3 79 -22  1042.5  0.5  742  326           
21 12.12.17 тихо ()   4000 м  дымка  10/0 средняя 
[As trans]
-23.3 -26.2 77 -23  1043.4  0.5  743  329           
00 13.12.17 тихо ()   4000 м  дымка  10/0 средняя 
[As trans]
-22.7 -25.6 77 -23  1044  0.7  743  328           
03 13.12.17 тихо ()   10 км    10/0 средняя 
[As trans]
-20.9 -23.6 79 -21  1043.4  -0.2  743  326  -24.6      15  равномерный
сухой снег
100% 
06 13.12.17 тихо ()   4000 м  слаб. снег  10/0 средняя 
[Ac As]
-20.9 -23.6 79 -21  1044.1  0.6  744  326           
09 13.12.17 170 (Ю) 20000 м  {снег}  4/0 средняя 
[Ac trans]
-18.3 -20.9 80 -19  1043.5  744  323           
12 13.12.17 тихо ()   20000 м  {снег}  ясно 
-21.9 -24.7 78 -22  1044.6  0.4  744  328           
15 13.12.17 тихо ()   10 км    3/0 верхняя 
[Ci fib]
-21 -23.8 78 -21  1044.9  0.4  744  327    -15.8  0.2     
18 13.12.17 тихо ()   10 км    3/0 верхняя 
[Ci fib]
-21.3 -24.1 78 -21  1044.8  -0.2  744  327           
21 13.12.17 170 (Ю) 10 км    ясно 
-22.8 -25.8 76 -23  1045  0.1  744  329           
00 14.12.17 тихо ()   4000 м  дымка  ясно 
-22 -24.8 78 -22  1044.9  0.1  744  328           
03 14.12.17 тихо ()   2000 м  дымка  ясно 
-21.4 -24.2 78 -21  1044.9  0.1  744  327  -23.2      15  равномерный
сухой снег
100% 
06 14.12.17 190 (Ю) 2000 м  дымка  10/0 верхняя 
[Cs]
-21.2 -24 78 -22  1045.2  0.3  744  327           
09 14.12.17 190 (Ю) 20000 м    8/0 верхняя 
[Ci fib]
-20.1 -22.7 80 -20  1044.6  -0.3  744  325           
Время (UTC), дата Ветер
(°,м/с) 
Видим.   Явления Облачность Т
(°С)
Тd
(°С)
f(%) Тe
(°С)
Pmin
(гПа)
dP
(гПа)
Po
(мм)
O2
(г/м3)
Тmin Tmax R s Состояние
почвы

Для получения пояснительной информации подведите курсор к названию столбца.

ПОГОДА в Магнитогорске - архив

Всё, что Вы хотите узнать о погоде в Магнитогорске - удобно и подробно!

Выберите нужную дату (начиная с 1 января 2015* года) и нажмите кнопку "Найти".
Будут отображены архивные сводки погоды по пункту Магнитогорск, начиная с указанной даты.


Отображать данные в формате CSV (для использования в таблицах Excel)


Внимание! Наш архив погоды предназначен исключительно для личного некоммерческого использования в познавательных целях. Если Вам необходимы официальные справки о состоянии погоды (для производственных, юридических, коммерческих и т.п. целей), обращайтесь в органы Росгидромета.

*Примечание: данная дата относится к архиву по метеостанциям СССР (Россия, СНГ, Балтия).
Архив по метеостанциям Зарубежной Европы и Азии (кроме Китая) хранится 10 дней, по другим регионам земного шара (Китай, Африка, Америка, Австралия, Океания) - 1 день.

Магнитогорск - район местоположения метеостанции


Название, широта, долгота, высота метеостанции:
Магнитогорск 53.3°ш. 59.1°д. 384 м над ур. моря [Российская Федерация]

Дополнительная информация

В oтличие oт бoльшинства пoгoдных сайтoв мы публикуем пoдрoбную метеoинфoрмацию в детальнoм прoфессиoнальнoм фoрмате.

Характеристики температуры и влажнoсти вoздуха измеряются на высoте 2 м в тени вдали oт зданий и деревьев.
Скoрoсть ветра измеряется на высoте 10 м (на урoвне рoста челoвека скoрoсть ветра ниже в 1.5-2 раза). Если метеoстанция нахoдится в гoрoде или в лесу, тo скoрoсть ветра занижена на 2-4 м/с пo сравнению с oткрытым местoм. Скoрoсть ветра над акватoриями крупных рек и oзёр, а также на вершинах хoлмoв на 2-5 м/с выше, чем в oбычных услoвиях.
Атмoсфернoе давление в разных тoчках местнoсти мoжет значительнo oтличаться oт давления на метеoстанции, в зависимoсти oт услoвий рельефа (при пoдъёме на 10 м давление пoнижается примернo на 1 мм рт.ст.).